Time,TemperatureF,DewpointF,PressureIn,WindDirection,WindDirectionDegrees,WindSpeedMPH,WindSpeedGustMPH,Humidity,HourlyPrecipIn,Conditions,Clouds,dailyrainin,SoftwareType,DateUTC
2013-04-03 00:01:00,37.8,23.5,30.27,North,11,9.0,9.0,56,0.00,,,0.00,Wunderground v.1.15,2013-04-03 05:01:00,
2013-04-03 00:06:00,37.5,22.8,30.27,NNE,12,9.0,10.0,55,0.00,,,0.00,Wunderground v.1.15,2013-04-03 05:06:00,
2013-04-03 00:12:00,37.2,22.9,30.27,North,8,8.0,8.0,56,0.00,,,0.00,Wunderground v.1.15,2013-04-03 05:12:00,
2013-04-03 00:18:00,37.0,23.6,30.27,North,8,9.0,11.0,58,0.00,,,0.00,Wunderground v.1.15,2013-04-03 05:18:00,
2013-04-03 00:24:00,36.7,26.0,30.27,NNE,15,7.0,10.0,65,0.00,,,0.00,Wunderground v.1.15,2013-04-03 05:24:00,
2013-04-03 00:30:00,36.5,26.6,30.28,North,11,8.0,8.0,67,0.00,,,0.00,Wunderground v.1.15,2013-04-03 05:30:00,
2013-04-03 00:36:00,36.2,24.8,30.27,North,10,9.0,10.0,63,0.00,,,0.00,Wunderground v.1.15,2013-04-03 05:36:00,
2013-04-03 00:42:00,35.9,23.0,30.28,NNE,13,9.0,10.0,59,0.00,,,0.00,Wunderground v.1.15,2013-04-03 05:42:00,
2013-04-03 00:47:00,35.8,24.0,30.28,North,352,10.0,10.0,62,0.00,,,0.00,Wunderground v.1.15,2013-04-03 05:47:00,
2013-04-03 00:53:00,35.7,26.2,30.29,North,4,11.0,11.0,68,0.00,,,0.00,Wunderground v.1.15,2013-04-03 05:53:00,
2013-04-03 00:59:00,35.4,26.6,30.28,North,359,8.0,11.0,70,0.00,,,0.00,Wunderground v.1.15,2013-04-03 05:59:00,
2013-04-03 01:04:00,35.2,26.4,30.28,North,5,7.0,9.0,70,0.00,,,0.00,Wunderground v.1.15,2013-04-03 06:04:00,
2013-04-03 01:10:00,35.0,23.7,30.28,North,8,11.0,11.0,63,0.00,,,0.00,Wunderground v.1.15,2013-04-03 06:10:00,
2013-04-03 01:17:00,35.1,23.8,30.27,North,4,11.0,12.0,63,0.00,,,0.00,Wunderground v.1.15,2013-04-03 06:17:00,
2013-04-03 01:23:00,35.5,23.4,30.27,West,279,11.0,12.0,61,0.00,,,0.00,Wunderground v.1.15,2013-04-03 06:23:00,
2013-04-03 01:29:00,35.9,23.4,30.27,North,8,11.0,12.0,60,0.00,,,0.00,Wunderground v.1.15,2013-04-03 06:29:00,
2013-04-03 01:35:00,36.2,23.6,30.28,North,4,10.0,11.0,60,0.00,,,0.00,Wunderground v.1.15,2013-04-03 06:35:00,
2013-04-03 01:40:00,36.3,23.7,30.28,North,4,11.0,11.0,60,0.00,,,0.00,Wunderground v.1.15,2013-04-03 06:40:00,
2013-04-03 01:46:00,36.3,23.3,30.27,North,11,10.0,11.0,59,0.00,,,0.00,Wunderground v.1.15,2013-04-03 06:46:00,
2013-04-03 01:52:00,36.2,23.2,30.27,North,3,9.0,10.0,59,0.00,,,0.00,Wunderground v.1.15,2013-04-03 06:52:00,
2013-04-03 01:58:00,36.1,23.1,30.28,NNE,12,11.0,12.0,59,0.00,,,0.00,Wunderground v.1.15,2013-04-03 06:58:00,
2013-04-03 02:03:00,36.1,23.5,30.27,NNE,15,9.0,11.0,60,0.00,,,0.00,Wunderground v.1.15,2013-04-03 07:03:00,
2013-04-03 02:08:00,36.0,26.5,30.27,North,11,9.0,11.0,68,0.00,,,0.00,Wunderground v.1.15,2013-04-03 07:08:00,
2013-04-03 02:13:00,35.6,23.5,30.26,North,10,10.0,10.0,61,0.00,,,0.00,Wunderground v.1.15,2013-04-03 07:13:00,
2013-04-03 02:18:00,35.4,23.7,30.27,North,11,8.0,11.0,62,0.00,,,0.00,Wunderground v.1.15,2013-04-03 07:18:00,
2013-04-03 02:23:00,35.2,23.5,30.27,NNE,12,11.0,11.0,62,0.00,,,0.00,Wunderground v.1.15,2013-04-03 07:23:00,
2013-04-03 02:28:00,35.0,23.3,30.26,NNE,17,11.0,12.0,62,0.00,,,0.00,Wunderground v.1.15,2013-04-03 07:28:00,
2013-04-03 02:33:00,34.9,23.6,30.27,NNE,14,11.0,12.0,63,0.00,,,0.00,Wunderground v.1.15,2013-04-03 07:33:00,
2013-04-03 02:38:00,34.8,23.5,30.26,NNE,16,10.0,12.0,63,0.00,,,0.00,Wunderground v.1.15,2013-04-03 07:38:00,
2013-04-03 02:43:00,34.8,23.1,30.26,NNE,12,10.0,10.0,62,0.00,,,0.00,Wunderground v.1.15,2013-04-03 07:43:00,
2013-04-03 02:48:00,34.8,23.1,30.27,NNE,20,8.0,11.0,62,0.00,,,0.00,Wunderground v.1.15,2013-04-03 07:48:00,
2013-04-03 02:53:00,34.9,23.6,30.27,NNE,17,9.0,10.0,63,0.00,,,0.00,Wunderground v.1.15,2013-04-03 07:53:00,
2013-04-03 02:58:00,34.9,23.2,30.27,NNE,15,10.0,11.0,62,0.00,,,0.00,Wunderground v.1.15,2013-04-03 07:58:00,
2013-04-03 03:03:00,34.9,23.6,30.26,NNE,20,7.0,10.0,63,0.00,,,0.00,Wunderground v.1.15,2013-04-03 08:03:00,
2013-04-03 03:08:00,34.8,23.5,30.26,NNE,20,10.0,11.0,63,0.00,,,0.00,Wunderground v.1.15,2013-04-03 08:08:00,
2013-04-03 03:13:00,34.8,23.1,30.26,NNE,12,9.0,11.0,62,0.00,,,0.00,Wunderground v.1.15,2013-04-03 08:13:00,
2013-04-03 03:18:00,34.8,23.9,30.26,NNE,18,8.0,11.0,64,0.00,,,0.00,Wunderground v.1.15,2013-04-03 08:18:00,
2013-04-03 03:23:00,34.7,23.4,30.25,NNE,17,10.0,11.0,63,0.00,,,0.00,Wunderground v.1.15,2013-04-03 08:23:00,
2013-04-03 03:28:00,34.5,23.9,30.26,NNE,13,12.0,12.0,65,0.00,,,0.00,Wunderground v.1.15,2013-04-03 08:28:00,
2013-04-03 03:33:00,34.2,23.7,30.25,NNE,13,12.0,14.0,65,0.00,,,0.00,Wunderground v.1.15,2013-04-03 08:33:00,
2013-04-03 03:38:00,33.9,23.4,30.25,North,11,11.0,14.0,65,0.00,,,0.00,Wunderground v.1.15,2013-04-03 08:38:00,
2013-04-03 03:43:00,33.7,23.5,30.25,NNE,14,13.0,13.0,66,0.00,,,0.00,Wunderground v.1.15,2013-04-03 08:43:00,
2013-04-03 03:48:00,33.5,23.4,30.25,NNE,13,10.0,13.0,66,0.00,,,0.00,Wunderground v.1.15,2013-04-03 08:48:00,
2013-04-03 03:53:00,33.5,25.1,30.25,NNE,15,11.0,12.0,71,0.00,,,0.00,Wunderground v.1.15,2013-04-03 08:53:00,
2013-04-03 03:58:00,33.3,25.6,30.25,NNE,13,10.0,12.0,73,0.00,,,0.00,Wunderground v.1.15,2013-04-03 08:58:00,
2013-04-03 04:03:00,33.2,23.4,30.25,NNE,13,11.0,12.0,67,0.00,,,0.00,Wunderground v.1.15,2013-04-03 09:03:00,
2013-04-03 04:08:00,33.0,23.6,30.24,North,11,12.0,12.0,68,0.00,,,0.00,Wunderground v.1.15,2013-04-03 09:08:00,
2013-04-03 04:13:00,32.9,23.5,30.23,North,11,11.0,13.0,68,0.00,,,0.00,Wunderground v.1.15,2013-04-03 09:13:00,
2013-04-03 04:18:00,32.8,23.0,30.24,North,9,11.0,13.0,67,0.00,,,0.00,Wunderground v.1.15,2013-04-03 09:18:00,
2013-04-03 04:23:00,32.9,23.5,30.24,NNE,13,12.0,13.0,68,0.00,,,0.00,Wunderground v.1.15,2013-04-03 09:23:00,
2013-04-03 04:28:00,33.1,23.3,30.23,NNE,13,13.0,14.0,67,0.00,,,0.00,Wunderground v.1.15,2013-04-03 09:28:00,
2013-04-03 04:33:00,33.4,23.3,30.24,NNE,15,12.0,14.0,66,0.00,,,0.00,Wunderground v.1.15,2013-04-03 09:33:00,
2013-04-03 04:38:00,33.7,22.8,30.24,NNE,16,12.0,14.0,64,0.00,,,0.00,Wunderground v.1.15,2013-04-03 09:38:00,
2013-04-03 04:43:00,33.9,23.4,30.24,NNE,18,11.0,13.0,65,0.00,,,0.00,Wunderground v.1.15,2013-04-03 09:43:00,
2013-04-03 04:48:00,34.0,23.1,30.25,NNE,24,12.0,13.0,64,0.00,,,0.00,Wunderground v.1.15,2013-04-03 09:48:00,
2013-04-03 04:53:00,34.0,22.7,30.24,NNE,12,11.0,13.0,63,0.00,,,0.00,Wunderground v.1.15,2013-04-03 09:53:00,
2013-04-03 04:58:00,33.9,23.4,30.24,NNE,17,13.0,16.0,65,0.00,,,0.00,Wunderground v.1.15,2013-04-03 09:58:00,
2013-04-03 05:03:00,33.7,23.2,30.24,NNE,18,9.0,13.0,65,0.00,,,0.00,Wunderground v.1.15,2013-04-03 10:03:00,
2013-04-03 05:08:00,33.6,23.4,30.24,NNE,17,9.0,13.0,66,0.00,,,0.00,Wunderground v.1.15,2013-04-03 10:08:00,
2013-04-03 05:13:00,33.5,23.0,30.24,NNE,17,14.0,15.0,65,0.00,,,0.00,Wunderground v.1.15,2013-04-03 10:13:00,
2013-04-03 05:18:00,33.4,23.3,30.25,NNE,20,11.0,15.0,66,0.00,,,0.00,Wunderground v.1.15,2013-04-03 10:18:00,
2013-04-03 05:23:00,33.4,22.9,30.26,NNE,20,10.0,14.0,65,0.00,,,0.00,Wunderground v.1.15,2013-04-03 10:23:00,
2013-04-03 05:29:00,33.5,22.6,30.26,NNE,22,9.0,14.0,64,0.00,,,0.00,Wunderground v.1.15,2013-04-03 10:29:00,
2013-04-03 05:34:00,33.6,23.8,30.26,NNE,28,9.0,11.0,67,0.00,,,0.00,Wunderground v.1.15,2013-04-03 10:34:00,
2013-04-03 05:39:00,33.4,24.0,30.26,NNE,29,10.0,11.0,68,0.00,,,0.00,Wunderground v.1.15,2013-04-03 10:39:00,
2013-04-03 05:44:00,33.2,23.4,30.27,NE,34,10.0,11.0,67,0.00,,,0.00,Wunderground v.1.15,2013-04-03 10:44:00,
2013-04-03 05:49:00,33.1,24.0,30.27,NNE,33,12.0,13.0,69,0.00,,,0.00,Wunderground v.1.15,2013-04-03 10:49:00,
2013-04-03 05:54:00,33.0,24.6,30.28,NNE,28,10.0,14.0,71,0.00,,,0.00,Wunderground v.1.15,2013-04-03 10:54:00,
2013-04-03 05:59:00,32.9,22.8,30.28,NE,36,11.0,14.0,66,0.00,,,0.00,Wunderground v.1.15,2013-04-03 10:59:00,
2013-04-03 06:04:00,33.0,22.5,30.29,NNE,32,12.0,13.0,65,0.00,,,0.00,Wunderground v.1.15,2013-04-03 11:04:00,
2013-04-03 06:09:00,33.2,23.1,30.29,NE,34,12.0,13.0,66,0.00,,,0.00,Wunderground v.1.15,2013-04-03 11:09:00,
2013-04-03 06:14:00,33.2,22.7,30.30,NNE,28,11.0,13.0,65,0.00,,,0.00,Wunderground v.1.15,2013-04-03 11:14:00,
2013-04-03 06:19:00,33.0,22.9,30.30,NE,34,12.0,13.0,66,0.00,,,0.00,Wunderground v.1.15,2013-04-03 11:19:00,
2013-04-03 06:24:00,33.0,23.6,30.31,NNE,26,10.0,12.0,68,0.00,,,0.00,Wunderground v.1.15,2013-04-03 11:24:00,
2013-04-03 06:29:00,32.9,23.1,30.31,NNE,30,12.0,13.0,67,0.00,,,0.00,Wunderground v.1.15,2013-04-03 11:29:00,
2013-04-03 06:34:00,32.8,24.1,30.32,NE,34,12.0,13.0,70,0.00,,,0.00,Wunderground v.1.15,2013-04-03 11:34:00,
2013-04-03 06:39:00,32.6,23.2,30.32,NNE,32,12.0,13.0,68,0.00,,,0.00,Wunderground v.1.15,2013-04-03 11:39:00,
2013-04-03 06:44:00,32.6,23.2,30.32,NNE,29,12.0,12.0,68,0.00,,,0.00,Wunderground v.1.15,2013-04-03 11:44:00,
2013-04-03 06:49:00,32.6,23.2,30.33,NNE,30,10.0,12.0,68,0.00,,,0.00,Wunderground v.1.15,2013-04-03 11:49:00,
2013-04-03 06:54:00,32.7,23.3,30.33,NNE,30,9.0,11.0,68,0.00,,,0.00,Wunderground v.1.15,2013-04-03 11:54:00,
2013-04-03 06:59:00,32.8,23.4,30.33,NNE,29,10.0,11.0,68,0.00,,,0.00,Wunderground v.1.15,2013-04-03 11:59:00,
2013-04-03 07:04:00,32.9,23.8,30.32,NNE,32,11.0,11.0,69,0.00,,,0.00,Wunderground v.1.15,2013-04-03 12:04:00,
2013-04-03 07:09:00,33.2,23.8,30.33,NE,41,12.0,12.0,68,0.00,,,0.00,Wunderground v.1.15,2013-04-03 12:09:00,
2013-04-03 07:14:00,33.6,23.8,30.33,NE,42,11.0,13.0,67,0.00,,,0.00,Wunderground v.1.15,2013-04-03 12:14:00,
2013-04-03 07:19:00,34.1,24.3,30.33,NE,38,11.0,13.0,67,0.00,,,0.00,Wunderground v.1.15,2013-04-03 12:19:00,
2013-04-03 07:24:00,34.6,25.1,30.33,NE,40,12.0,13.0,68,0.00,,,0.00,Wunderground v.1.15,2013-04-03 12:24:00,
2013-04-03 07:29:00,35.1,25.2,30.33,NE,45,12.0,13.0,67,0.00,,,0.00,Wunderground v.1.15,2013-04-03 12:29:00,
2013-04-03 07:34:00,35.6,26.4,30.33,NE,44,10.0,12.0,69,0.00,,,0.00,Wunderground v.1.15,2013-04-03 12:34:00,
2013-04-03 07:39:00,36.1,25.1,30.33,NE,41,12.0,13.0,64,0.00,,,0.00,Wunderground v.1.15,2013-04-03 12:39:00,
2013-04-03 07:44:00,36.6,24.8,30.34,NE,41,9.0,14.0,62,0.00,,,0.00,Wunderground v.1.15,2013-04-03 12:44:00,
2013-04-03 07:49:00,37.1,25.3,30.34,NNE,32,11.0,14.0,62,0.00,,,0.00,Wunderground v.1.15,2013-04-03 12:49:00,
2013-04-03 07:54:00,37.7,24.6,30.34,NNE,24,6.0,14.0,59,0.00,,,0.00,Wunderground v.1.15,2013-04-03 12:54:00,
2013-04-03 07:59:00,38.2,25.5,30.35,NE,42,11.0,14.0,60,0.00,,,0.00,Wunderground v.1.15,2013-04-03 12:59:00,
2013-04-03 08:04:00,38.8,25.3,30.34,NNE,30,12.0,13.0,58,0.00,,,0.00,Wunderground v.1.15,2013-04-03 13:04:00,
2013-04-03 08:09:00,39.3,25.7,30.34,NNE,24,8.0,16.0,58,0.00,,,0.00,Wunderground v.1.15,2013-04-03 13:09:00,
2013-04-03 08:14:00,39.7,24.8,30.34,NNE,22,10.0,14.0,55,0.00,,,0.00,Wunderground v.1.15,2013-04-03 13:14:00,
2013-04-03 08:19:00,40.1,25.6,30.34,North,5,8.0,14.0,56,0.00,,,0.00,Wunderground v.1.15,2013-04-03 13:19:00,
2013-04-03 08:24:00,40.5,25.6,30.34,NE,34,14.0,16.0,55,0.00,,,0.00,Wunderground v.1.15,2013-04-03 13:24:00,
2013-04-03 08:29:00,40.9,25.5,30.34,NNE,25,9.0,16.0,54,0.00,,,0.00,Wunderground v.1.15,2013-04-03 13:29:00,
2013-04-03 08:34:00,41.6,26.6,30.33,NE,47,10.0,14.0,55,0.00,,,0.00,Wunderground v.1.15,2013-04-03 13:34:00,
2013-04-03 08:39:00,42.0,25.2,30.33,NNE,20,15.0,17.0,51,0.00,,,0.00,Wunderground v.1.15,2013-04-03 13:39:00,
2013-04-03 08:44:00,42.3,25.9,30.33,NE,36,14.0,15.0,52,0.00,,,0.00,Wunderground v.1.15,2013-04-03 13:44:00,
2013-04-03 08:49:00,42.5,25.6,30.33,NNE,26,10.0,15.0,51,0.00,,,0.00,Wunderground v.1.15,2013-04-03 13:49:00,
2013-04-03 08:54:00,42.6,25.7,30.33,NE,37,9.0,15.0,51,0.00,,,0.00,Wunderground v.1.15,2013-04-03 13:54:00,
2013-04-03 08:59:00,42.8,25.9,30.33,NE,36,6.0,15.0,51,0.00,,,0.00,Wunderground v.1.15,2013-04-03 13:59:00,
2013-04-03 09:04:00,43.1,25.7,30.33,NNE,27,11.0,16.0,50,0.00,,,0.00,Wunderground v.1.15,2013-04-03 14:04:00,
2013-04-03 09:09:00,43.5,26.1,30.33,NE,36,7.0,16.0,50,0.00,,,0.00,Wunderground v.1.15,2013-04-03 14:09:00,
2013-04-03 09:14:00,43.7,24.8,30.33,ENE,59,8.0,16.0,47,0.00,,,0.00,Wunderground v.1.15,2013-04-03 14:14:00,
2013-04-03 09:19:00,44.0,24.5,30.32,NE,41,9.0,17.0,46,0.00,,,0.00,Wunderground v.1.15,2013-04-03 14:19:00,
2013-04-03 09:24:00,44.5,24.5,30.32,NE,47,9.0,17.0,45,0.00,,,0.00,Wunderground v.1.15,2013-04-03 14:24:00,
2013-04-03 09:29:00,44.9,24.8,30.33,NNE,24,7.0,17.0,45,0.00,,,0.00,Wunderground v.1.15,2013-04-03 14:29:00,
2013-04-03 09:34:00,45.2,24.0,30.32,NNE,26,10.0,17.0,43,0.00,,,0.00,Wunderground v.1.15,2013-04-03 14:34:00,
2013-04-03 09:39:00,45.5,23.7,30.33,NE,48,10.0,17.0,42,0.00,,,0.00,Wunderground v.1.15,2013-04-03 14:39:00,
2013-04-03 09:44:00,45.8,24.5,30.32,NNE,21,7.0,14.0,43,0.00,,,0.00,Wunderground v.1.15,2013-04-03 14:44:00,
2013-04-03 09:49:00,46.2,24.3,30.32,NNE,23,10.0,14.0,42,0.00,,,0.00,Wunderground v.1.15,2013-04-03 14:49:00,
2013-04-03 09:54:00,46.5,24.0,30.32,NE,45,19.0,19.0,41,0.00,,,0.00,Wunderground v.1.15,2013-04-03 14:54:00,
2013-04-03 09:59:00,46.8,24.3,30.32,North,7,7.0,19.0,41,0.00,,,0.00,Wunderground v.1.15,2013-04-03 14:59:00,
2013-04-03 10:04:00,47.4,24.3,30.32,NNE,26,17.0,19.0,40,0.00,,,0.00,Wunderground v.1.15,2013-04-03 15:04:00,
2013-04-03 10:09:00,47.3,24.2,30.31,NE,36,15.0,24.0,40,0.00,,,0.00,Wunderground v.1.15,2013-04-03 15:09:00,
2013-04-03 10:14:00,47.5,24.3,30.31,NE,52,22.0,22.0,40,0.00,,,0.00,Wunderground v.1.15,2013-04-03 15:14:00,
2013-04-03 10:19:00,47.6,23.8,30.31,NE,39,13.0,22.0,39,0.00,,,0.00,Wunderground v.1.15,2013-04-03 15:19:00,
2013-04-03 10:24:00,47.7,23.9,30.31,NNE,28,14.0,20.0,39,0.00,,,0.00,Wunderground v.1.15,2013-04-03 15:24:00,
2013-04-03 10:29:00,47.9,23.5,30.31,NNE,32,12.0,20.0,38,0.00,,,0.00,Wunderground v.1.15,2013-04-03 15:29:00,
2013-04-03 10:34:00,48.4,23.9,30.31,NNE,28,17.0,21.0,38,0.00,,,0.00,Wunderground v.1.15,2013-04-03 15:34:00,
2013-04-03 10:39:00,48.7,24.2,30.32,NE,35,17.0,21.0,38,0.00,,,0.00,Wunderground v.1.15,2013-04-03 15:39:00,
2013-04-03 10:44:00,49.0,23.8,30.32,NNE,21,12.0,20.0,37,0.00,,,0.00,Wunderground v.1.15,2013-04-03 15:44:00,
2013-04-03 10:49:00,49.4,22.9,30.32,NNE,30,15.0,20.0,35,0.00,,,0.00,Wunderground v.1.15,2013-04-03 15:49:00,
2013-04-03 10:54:00,49.3,23.4,30.32,NE,50,23.0,23.0,36,0.00,,,0.00,Wunderground v.1.15,2013-04-03 15:54:00,
2013-04-03 10:59:00,49.4,22.2,30.32,NNE,22,16.0,26.0,34,0.00,,,0.00,Wunderground v.1.15,2013-04-03 15:59:00,
2013-04-03 11:04:00,49.4,21.5,30.32,NNE,28,11.0,24.0,33,0.00,,,0.00,Wunderground v.1.15,2013-04-03 16:04:00,
2013-04-03 11:09:00,49.5,22.3,30.32,North,4,16.0,24.0,34,0.00,,,0.00,Wunderground v.1.15,2013-04-03 16:09:00,
2013-04-03 11:14:00,50.0,22.0,30.32,NNE,22,16.0,22.0,33,0.00,,,0.00,Wunderground v.1.15,2013-04-03 16:14:00,
2013-04-03 11:19:00,49.9,21.9,30.32,NE,34,13.0,25.0,33,0.00,,,0.00,Wunderground v.1.15,2013-04-03 16:19:00,
2013-04-03 11:25:00,50.4,22.3,30.32,NNE,24,12.0,21.0,33,0.00,,,0.00,Wunderground v.1.15,2013-04-03 16:25:00,
2013-04-03 11:30:00,50.6,21.8,30.31,North,9,13.0,16.0,32,0.00,,,0.00,Wunderground v.1.15,2013-04-03 16:30:00,
2013-04-03 11:35:00,50.8,22.7,30.31,NNE,13,10.0,23.0,33,0.00,,,0.00,Wunderground v.1.15,2013-04-03 16:35:00,
2013-04-03 11:40:00,50.9,22.1,30.30,NNE,12,14.0,17.0,32,0.00,,,0.00,Wunderground v.1.15,2013-04-03 16:40:00,
2013-04-03 11:45:00,50.8,22.0,30.30,NNE,22,19.0,23.0,32,0.00,,,0.00,Wunderground v.1.15,2013-04-03 16:45:00,
2013-04-03 11:50:00,50.8,22.7,30.29,NNE,14,15.0,19.0,33,0.00,,,0.00,Wunderground v.1.15,2013-04-03 16:50:00,
2013-04-03 11:55:00,51.3,23.1,30.29,NE,41,16.0,20.0,33,0.00,,,0.00,Wunderground v.1.15,2013-04-03 16:55:00,
2013-04-03 12:00:00,51.4,21.7,30.31,NNE,17,13.0,16.0,31,0.00,,,0.00,Wunderground v.1.15,2013-04-03 17:00:00,
2013-04-03 12:05:00,51.7,23.5,30.30,NE,52,20.0,20.0,33,0.00,,,0.00,Wunderground v.1.15,2013-04-03 17:05:00,
2013-04-03 12:10:00,52.2,23.9,30.30,NNE,30,18.0,19.0,33,0.00,,,0.00,Wunderground v.1.15,2013-04-03 17:10:00,
2013-04-03 12:15:00,52.6,23.5,30.31,ENE,63,12.0,22.0,32,0.00,,,0.00,Wunderground v.1.15,2013-04-03 17:15:00,
2013-04-03 12:20:00,52.6,22.8,30.31,ENE,63,16.0,20.0,31,0.00,,,0.00,Wunderground v.1.15,2013-04-03 17:20:00,
2013-04-03 12:25:00,52.6,22.0,30.30,NNE,28,12.0,26.0,30,0.00,,,0.00,Wunderground v.1.15,2013-04-03 17:25:00,
2013-04-03 12:30:00,52.6,22.0,30.30,NNE,29,13.0,19.0,30,0.00,,,0.00,Wunderground v.1.15,2013-04-03 17:30:00,
2013-04-03 12:35:00,52.9,23.0,30.30,North,7,6.0,22.0,31,0.00,,,0.00,Wunderground v.1.15,2013-04-03 17:35:00,
2013-04-03 12:40:00,53.1,23.2,30.30,NNE,30,18.0,19.0,31,0.00,,,0.00,Wunderground v.1.15,2013-04-03 17:40:00,
2013-04-03 12:45:00,52.8,22.2,30.29,North,357,11.0,22.0,30,0.00,,,0.00,Wunderground v.1.15,2013-04-03 17:45:00,
2013-04-03 12:50:00,52.5,23.5,30.29,NNE,19,10.0,16.0,32,0.00,,,0.00,Wunderground v.1.15,2013-04-03 17:50:00,
2013-04-03 12:55:00,52.7,23.6,30.29,NNE,14,11.0,24.0,32,0.00,,,0.00,Wunderground v.1.15,2013-04-03 17:55:00,
2013-04-03 13:00:00,52.8,23.7,30.29,NNE,24,12.0,15.0,32,0.00,,,0.00,Wunderground v.1.15,2013-04-03 18:00:00,
2013-04-03 13:05:00,53.2,22.5,30.29,NNE,30,17.0,24.0,30,0.00,,,0.00,Wunderground v.1.15,2013-04-03 18:05:00,
2013-04-03 13:10:00,52.8,23.0,30.29,NNE,15,16.0,18.0,31,0.00,,,0.00,Wunderground v.1.15,2013-04-03 18:10:00,
2013-04-03 13:15:00,52.6,22.0,30.29,NE,43,13.0,25.0,30,0.00,,,0.00,Wunderground v.1.15,2013-04-03 18:15:00,
2013-04-03 13:20:00,52.6,23.5,30.29,NNE,18,13.0,16.0,32,0.00,,,0.00,Wunderground v.1.15,2013-04-03 18:20:00,
2013-04-03 13:25:00,52.7,23.6,30.28,NNE,16,17.0,24.0,32,0.00,,,0.00,Wunderground v.1.15,2013-04-03 18:25:00,
2013-04-03 13:31:00,52.6,23.5,30.29,NE,49,15.0,19.0,32,0.00,,,0.00,Wunderground v.1.15,2013-04-03 18:31:00,
2013-04-03 13:36:00,52.6,22.8,30.29,NNE,16,14.0,19.0,31,0.00,,,0.00,Wunderground v.1.15,2013-04-03 18:36:00,
2013-04-03 13:41:00,53.0,23.9,30.29,NNE,16,18.0,19.0,32,0.00,,,0.00,Wunderground v.1.15,2013-04-03 18:41:00,
2013-04-03 13:46:00,53.0,23.9,30.29,NNE,30,15.0,21.0,32,0.00,,,0.00,Wunderground v.1.15,2013-04-03 18:46:00,
2013-04-03 13:51:00,53.0,23.1,30.29,NE,34,10.0,16.0,31,0.00,,,0.00,Wunderground v.1.15,2013-04-03 18:51:00,
2013-04-03 13:56:00,53.0,23.9,30.28,NE,49,13.0,19.0,32,0.00,,,0.00,Wunderground v.1.15,2013-04-03 18:56:00,
2013-04-03 14:01:00,53.1,22.4,30.29,NE,38,18.0,20.0,30,0.00,,,0.00,Wunderground v.1.15,2013-04-03 19:01:00,
2013-04-03 14:06:00,53.2,24.1,30.29,NE,52,18.0,20.0,32,0.00,,,0.00,Wunderground v.1.15,2013-04-03 19:06:00,
2013-04-03 14:11:00,53.0,23.1,30.29,NE,50,14.0,18.0,31,0.00,,,0.00,Wunderground v.1.15,2013-04-03 19:11:00,
2013-04-03 14:16:00,52.9,23.0,30.28,NNE,28,17.0,20.0,31,0.00,,,0.00,Wunderground v.1.15,2013-04-03 19:16:00,
2013-04-03 14:21:00,52.8,24.5,30.28,NNE,26,19.0,19.0,33,0.00,,,0.00,Wunderground v.1.15,2013-04-03 19:21:00,
2013-04-03 14:26:00,52.9,23.8,30.28,NNE,23,16.0,21.0,32,0.00,,,0.00,Wunderground v.1.15,2013-04-03 19:26:00,
2013-04-03 14:31:00,52.8,23.7,30.28,NNE,21,19.0,24.0,32,0.00,,,0.00,Wunderground v.1.15,2013-04-03 19:31:00,
2013-04-03 14:37:00,52.7,23.6,30.27,NE,36,17.0,24.0,32,0.00,,,0.00,Wunderground v.1.15,2013-04-03 19:37:00,
2013-04-03 14:42:00,52.6,22.8,30.27,NE,42,16.0,21.0,31,0.00,,,0.00,Wunderground v.1.15,2013-04-03 19:42:00,
2013-04-03 14:47:00,52.6,23.5,30.27,North,9,13.0,23.0,32,0.00,,,0.00,Wunderground v.1.15,2013-04-03 19:47:00,
2013-04-03 14:52:00,53.0,23.9,30.27,NE,38,18.0,20.0,32,0.00,,,0.00,Wunderground v.1.15,2013-04-03 19:52:00,
2013-04-03 14:57:00,53.1,24.7,30.27,NE,46,13.0,23.0,33,0.00,,,0.00,Wunderground v.1.15,2013-04-03 19:57:00,
2013-04-03 15:02:00,53.4,24.2,30.26,NNE,31,13.0,15.0,32,0.00,,,0.00,Wunderground v.1.15,2013-04-03 20:02:00,
2013-04-03 15:07:00,53.7,23.7,30.26,NE,34,14.0,18.0,31,0.00,,,0.00,Wunderground v.1.15,2013-04-03 20:07:00,
2013-04-03 15:12:00,53.9,23.1,30.27,NNE,28,19.0,23.0,30,0.00,,,0.00,Wunderground v.1.15,2013-04-03 20:12:00,
2013-04-03 15:17:00,53.6,22.9,30.27,NE,43,17.0,23.0,30,0.00,,,0.00,Wunderground v.1.15,2013-04-03 20:17:00,
2013-04-03 15:22:00,53.7,23.7,30.27,NE,36,22.0,25.0,31,0.00,,,0.00,Wunderground v.1.15,2013-04-03 20:22:00,
2013-04-03 15:27:00,53.6,23.7,30.26,NE,42,17.0,25.0,31,0.00,,,0.00,Wunderground v.1.15,2013-04-03 20:27:00,
2013-04-03 15:32:00,53.5,25.1,30.27,West,279,18.0,20.0,33,0.00,,,0.00,Wunderground v.1.15,2013-04-03 20:32:00,
2013-04-03 15:37:00,53.6,23.7,30.27,NE,46,19.0,25.0,31,0.00,,,0.00,Wunderground v.1.15,2013-04-03 20:37:00,
2013-04-03 15:42:00,53.6,23.7,30.26,ENE,58,16.0,22.0,31,0.00,,,0.00,Wunderground v.1.15,2013-04-03 20:42:00,
2013-04-03 15:47:00,53.8,23.8,30.25,NE,42,22.0,23.0,31,0.00,,,0.00,Wunderground v.1.15,2013-04-03 20:47:00,
2013-04-03 15:53:00,53.7,23.0,30.25,NE,47,18.0,24.0,30,0.00,,,0.00,Wunderground v.1.15,2013-04-03 20:53:00,
2013-04-03 15:58:00,53.6,23.7,30.25,NE,50,20.0,24.0,31,0.00,,,0.00,Wunderground v.1.15,2013-04-03 20:58:00,
2013-04-03 16:03:00,53.7,23.7,30.25,NNE,18,11.0,22.0,31,0.00,,,0.00,Wunderground v.1.15,2013-04-03 21:03:00,
2013-04-03 16:08:00,53.9,25.4,30.24,NNE,22,16.0,22.0,33,0.00,,,0.00,Wunderground v.1.15,2013-04-03 21:08:00,
2013-04-03 16:13:00,53.9,24.7,30.24,NE,46,13.0,19.0,32,0.00,,,0.00,Wunderground v.1.15,2013-04-03 21:13:00,
2013-04-03 16:18:00,53.8,24.6,30.24,NNE,31,23.0,23.0,32,0.00,,,0.00,Wunderground v.1.15,2013-04-03 21:18:00,
2013-04-03 16:23:00,53.4,24.2,30.23,NE,34,21.0,23.0,32,0.00,,,0.00,Wunderground v.1.15,2013-04-03 21:23:00,
2013-04-03 16:28:00,53.2,23.3,30.23,NE,46,16.0,24.0,31,0.00,,,0.00,Wunderground v.1.15,2013-04-03 21:28:00,
2013-04-03 16:33:00,53.2,24.8,30.23,North,5,12.0,22.0,33,0.00,,,0.00,Wunderground v.1.15,2013-04-03 21:33:00,
2013-04-03 16:38:00,53.2,24.1,30.23,NNW,344,7.0,22.0,32,0.00,,,0.00,Wunderground v.1.15,2013-04-03 21:38:00,
2013-04-03 16:43:00,53.2,24.1,30.23,NE,37,14.0,21.0,32,0.00,,,0.00,Wunderground v.1.15,2013-04-03 21:43:00,
2013-04-03 16:48:00,53.2,24.1,30.22,NE,35,17.0,22.0,32,0.00,,,0.00,Wunderground v.1.15,2013-04-03 21:48:00,
2013-04-03 16:53:00,53.0,23.9,30.22,NNE,16,16.0,22.0,32,0.00,,,0.00,Wunderground v.1.15,2013-04-03 21:53:00,
2013-04-03 16:58:00,52.9,24.5,30.22,NE,45,20.0,25.0,33,0.00,,,0.00,Wunderground v.1.15,2013-04-03 21:58:00,
2013-04-03 17:03:00,52.9,24.5,30.22,NE,40,11.0,21.0,33,0.00,,,0.00,Wunderground v.1.15,2013-04-03 22:03:00,
2013-04-03 17:08:00,52.8,23.7,30.22,NE,45,13.0,21.0,32,0.00,,,0.00,Wunderground v.1.15,2013-04-03 22:08:00,
2013-04-03 17:13:00,52.8,24.5,30.22,NNE,17,12.0,15.0,33,0.00,,,0.00,Wunderground v.1.15,2013-04-03 22:13:00,
2013-04-03 17:18:00,52.7,23.6,30.22,NNE,23,21.0,21.0,32,0.00,,,0.00,Wunderground v.1.15,2013-04-03 22:18:00,
2013-04-03 17:23:00,52.5,24.9,30.22,NE,47,13.0,22.0,34,0.00,,,0.00,Wunderground v.1.15,2013-04-03 22:23:00,
2013-04-03 17:28:00,52.5,24.9,30.22,NNE,28,15.0,22.0,34,0.00,,,0.00,Wunderground v.1.15,2013-04-03 22:28:00,
2013-04-03 17:33:00,52.4,24.8,30.22,NNE,32,15.0,18.0,34,0.00,,,0.00,Wunderground v.1.15,2013-04-03 22:33:00,
2013-04-03 17:38:00,52.3,24.7,30.21,NE,45,12.0,20.0,34,0.00,,,0.00,Wunderground v.1.15,2013-04-03 22:38:00,
2013-04-03 17:43:00,52.1,24.6,30.22,NNE,30,14.0,19.0,34,0.00,,,0.00,Wunderground v.1.15,2013-04-03 22:43:00,
2013-04-03 17:48:00,51.9,25.1,30.22,NNE,23,9.0,19.0,35,0.00,,,0.00,Wunderground v.1.15,2013-04-03 22:48:00,
2013-04-03 17:53:00,51.8,25.0,30.23,NE,47,16.0,16.0,35,0.00,,,0.00,Wunderground v.1.15,2013-04-03 22:53:00,
2013-04-03 17:58:00,51.7,24.2,30.23,NE,46,17.0,19.0,34,0.00,,,0.00,Wunderground v.1.15,2013-04-03 22:58:00,
2013-04-03 18:03:00,51.7,24.2,30.22,NNE,22,15.0,17.0,34,0.00,,,0.00,Wunderground v.1.15,2013-04-03 23:03:00,
2013-04-03 18:08:00,51.5,24.7,30.23,NNE,22,12.0,17.0,35,0.00,,,0.00,Wunderground v.1.15,2013-04-03 23:08:00,
2013-04-03 18:13:00,51.4,24.6,30.23,NNE,20,9.0,17.0,35,0.00,,,0.00,Wunderground v.1.15,2013-04-03 23:13:00,
2013-04-03 18:18:00,51.3,25.2,30.22,NNE,22,13.0,17.0,36,0.00,,,0.00,Wunderground v.1.15,2013-04-03 23:18:00,
2013-04-03 18:23:00,51.1,24.4,30.22,NNE,27,16.0,18.0,35,0.00,,,0.00,Wunderground v.1.15,2013-04-03 23:23:00,
2013-04-03 18:28:00,51.0,24.3,30.22,NNE,31,13.0,18.0,35,0.00,,,0.00,Wunderground v.1.15,2013-04-03 23:28:00,
2013-04-03 18:33:00,50.9,25.5,30.22,NNE,32,10.0,17.0,37,0.00,,,0.00,Wunderground v.1.15,2013-04-03 23:33:00,
2013-04-03 18:38:00,50.7,25.3,30.22,NNE,30,12.0,17.0,37,0.00,,,0.00,Wunderground v.1.15,2013-04-03 23:38:00,
2013-04-03 18:43:00,50.6,25.3,30.22,NE,37,17.0,17.0,37,0.00,,,0.00,Wunderground v.1.15,2013-04-03 23:43:00,
2013-04-03 18:48:00,50.5,25.2,30.21,NNE,24,13.0,17.0,37,0.00,,,0.00,Wunderground v.1.15,2013-04-03 23:48:00,
2013-04-03 18:53:00,50.3,25.6,30.22,NNE,26,11.0,12.0,38,0.00,,,0.00,Wunderground v.1.15,2013-04-03 23:53:00,
2013-04-03 18:58:00,50.1,26.1,30.22,NNE,13,14.0,15.0,39,0.00,,,0.00,Wunderground v.1.15,2013-04-03 23:58:00,
2013-04-03 19:03:00,49.9,25.9,30.22,NNE,15,12.0,13.0,39,0.00,,,0.00,Wunderground v.1.15,2013-04-04 00:03:00,
2013-04-03 19:08:00,49.7,25.7,30.22,NNE,17,13.0,16.0,39,0.00,,,0.00,Wunderground v.1.15,2013-04-04 00:08:00,
2013-04-03 19:13:00,49.6,25.6,30.22,North,10,13.0,17.0,39,0.00,,,0.00,Wunderground v.1.15,2013-04-04 00:13:00,
2013-04-03 19:18:00,49.5,25.5,30.22,NNE,21,12.0,17.0,39,0.00,,,0.00,Wunderground v.1.15,2013-04-04 00:18:00,
2013-04-03 19:23:00,49.2,25.3,30.21,NNE,24,14.0,16.0,39,0.00,,,0.00,Wunderground v.1.15,2013-04-04 00:23:00,
2013-04-03 19:28:00,49.1,25.8,30.22,NNE,18,11.0,16.0,40,0.00,,,0.00,Wunderground v.1.15,2013-04-04 00:28:00,
2013-04-03 19:33:00,49.0,25.7,30.21,NNE,15,12.0,13.0,40,0.00,,,0.00,Wunderground v.1.15,2013-04-04 00:33:00,
2013-04-03 19:38:00,48.9,25.0,30.21,NNE,18,14.0,15.0,39,0.00,,,0.00,Wunderground v.1.15,2013-04-04 00:38:00,
2013-04-03 19:43:00,48.9,25.6,30.21,NNE,22,13.0,15.0,40,0.00,,,0.00,Wunderground v.1.15,2013-04-04 00:43:00,
2013-04-03 19:48:00,48.8,25.5,30.21,NNE,26,9.0,15.0,40,0.00,,,0.00,Wunderground v.1.15,2013-04-04 00:48:00,
2013-04-03 19:53:00,48.7,26.0,30.20,NNE,29,12.0,15.0,41,0.00,,,0.00,Wunderground v.1.15,2013-04-04 00:53:00,
2013-04-03 19:58:00,48.6,25.3,30.21,NNE,20,11.0,15.0,40,0.00,,,0.00,Wunderground v.1.15,2013-04-04 00:58:00,
2013-04-03 20:03:00,48.5,25.2,30.21,NNE,15,9.0,14.0,40,0.00,,,0.00,Wunderground v.1.15,2013-04-04 01:03:00,
2013-04-03 20:08:00,48.5,25.2,30.21,NNE,22,10.0,15.0,40,0.00,,,0.00,Wunderground v.1.15,2013-04-04 01:08:00,
2013-04-03 20:14:00,48.5,25.8,30.21,NNE,29,9.0,16.0,41,0.00,,,0.00,Wunderground v.1.15,2013-04-04 01:14:00,
2013-04-03 20:19:00,48.4,25.8,30.20,NNE,30,11.0,17.0,41,0.00,,,0.00,Wunderground v.1.15,2013-04-04 01:19:00,
2013-04-03 20:24:00,48.3,26.2,30.21,NNE,30,12.0,16.0,42,0.00,,,0.00,Wunderground v.1.15,2013-04-04 01:24:00,
2013-04-03 20:29:00,48.2,26.2,30.21,NNE,27,14.0,16.0,42,0.00,,,0.00,Wunderground v.1.15,2013-04-04 01:29:00,
2013-04-03 20:34:00,48.1,26.1,30.22,NNE,28,7.0,14.0,42,0.00,,,0.00,Wunderground v.1.15,2013-04-04 01:34:00,
2013-04-03 20:39:00,48.0,26.5,30.21,NNE,18,7.0,14.0,43,0.00,,,0.00,Wunderground v.1.15,2013-04-04 01:39:00,
2013-04-03 20:44:00,47.9,26.5,30.21,NNE,20,11.0,14.0,43,0.00,,,0.00,Wunderground v.1.15,2013-04-04 01:44:00,
2013-04-03 20:49:00,47.8,26.4,30.21,NNE,14,12.0,14.0,43,0.00,,,0.00,Wunderground v.1.15,2013-04-04 01:49:00,
2013-04-03 20:54:00,47.7,26.3,30.22,NNE,18,9.0,15.0,43,0.00,,,0.00,Wunderground v.1.15,2013-04-04 01:54:00,
2013-04-03 20:59:00,47.6,25.6,30.22,North,7,10.0,15.0,42,0.00,,,0.00,Wunderground v.1.15,2013-04-04 01:59:00,
2013-04-03 21:04:00,47.7,25.1,30.22,NNE,18,10.0,16.0,41,0.00,,,0.00,Wunderground v.1.15,2013-04-04 02:04:00,
2013-04-03 21:09:00,47.7,25.7,30.22,NNE,22,14.0,16.0,42,0.00,,,0.00,Wunderground v.1.15,2013-04-04 02:09:00,
2013-04-03 21:14:00,47.7,24.5,30.23,North,7,11.0,16.0,40,0.00,,,0.00,Wunderground v.1.15,2013-04-04 02:14:00,
2013-04-03 21:19:00,47.7,25.1,30.23,NNE,15,13.0,16.0,41,0.00,,,0.00,Wunderground v.1.15,2013-04-04 02:19:00,
2013-04-03 21:24:00,47.6,24.4,30.22,NNE,27,10.0,16.0,40,0.00,,,0.00,Wunderground v.1.15,2013-04-04 02:24:00,
2013-04-03 21:29:00,47.6,24.4,30.23,NNE,27,12.0,16.0,40,0.00,,,0.00,Wunderground v.1.15,2013-04-04 02:29:00,
2013-04-03 21:34:00,47.5,24.9,30.23,NNE,21,12.0,15.0,41,0.00,,,0.00,Wunderground v.1.15,2013-04-04 02:34:00,
2013-04-03 21:39:00,47.4,24.9,30.23,NNE,22,12.0,15.0,41,0.00,,,0.00,Wunderground v.1.15,2013-04-04 02:39:00,
2013-04-03 21:44:00,47.4,24.9,30.23,NNE,29,11.0,15.0,41,0.00,,,0.00,Wunderground v.1.15,2013-04-04 02:44:00,
2013-04-03 21:50:00,47.4,24.3,30.24,NNE,32,13.0,13.0,40,0.00,,,0.00,Wunderground v.1.15,2013-04-04 02:50:00,
2013-04-03 21:55:00,47.3,24.8,30.24,NNE,32,12.0,15.0,41,0.00,,,0.00,Wunderground v.1.15,2013-04-04 02:55:00,
2013-04-03 22:00:00,47.3,24.8,30.23,NNE,31,13.0,14.0,41,0.00,,,0.00,Wunderground v.1.15,2013-04-04 03:00:00,
2013-04-03 22:05:00,47.2,25.3,30.23,NNE,32,11.0,15.0,42,0.00,,,0.00,Wunderground v.1.15,2013-04-04 03:05:00,
2013-04-03 22:10:00,47.0,24.5,30.22,NNE,30,15.0,16.0,41,0.00,,,0.00,Wunderground v.1.15,2013-04-04 03:10:00,
2013-04-03 22:15:00,47.0,24.5,30.22,NE,38,15.0,17.0,41,0.00,,,0.00,Wunderground v.1.15,2013-04-04 03:15:00,
2013-04-03 22:20:00,46.9,25.0,30.22,NNE,32,16.0,16.0,42,0.00,,,0.00,Wunderground v.1.15,2013-04-04 03:20:00,
2013-04-03 22:25:00,46.9,25.0,30.22,NE,34,13.0,19.0,42,0.00,,,0.00,Wunderground v.1.15,2013-04-04 03:25:00,
2013-04-03 22:30:00,46.8,24.3,30.21,NE,34,14.0,15.0,41,0.00,,,0.00,Wunderground v.1.15,2013-04-04 03:30:00,
2013-04-03 22:35:00,46.8,24.9,30.22,NE,35,14.0,18.0,42,0.00,,,0.00,Wunderground v.1.15,2013-04-04 03:35:00,
2013-04-03 22:40:00,46.7,24.2,30.21,NNE,32,12.0,14.0,41,0.00,,,0.00,Wunderground v.1.15,2013-04-04 03:40:00,
2013-04-03 22:45:00,46.7,24.8,30.21,NNE,27,12.0,19.0,42,0.00,,,0.00,Wunderground v.1.15,2013-04-04 03:45:00,
2013-04-03 22:51:00,46.7,24.8,30.22,NNE,33,16.0,16.0,42,0.00,,,0.00,Wunderground v.1.15,2013-04-04 03:51:00,
2013-04-03 22:56:00,46.5,24.6,30.21,NE,45,15.0,19.0,42,0.00,,,0.00,Wunderground v.1.15,2013-04-04 03:56:00,
2013-04-03 23:00:00,46.4,24.5,30.21,NE,43,15.0,18.0,42,0.00,,,0.00,Wunderground v.1.15,2013-04-04 04:00:00,
2013-04-03 23:02:00,46.4,25.1,30.21,NNE,33,14.0,19.0,43,0.00,,,0.00,Wunderground v.1.15,2013-04-04 04:02:00,
2013-04-03 23:07:00,46.3,24.4,30.21,NE,55,10.0,19.0,42,0.00,,,0.00,Wunderground v.1.15,2013-04-04 04:07:00,
2013-04-03 23:12:00,46.3,25.0,30.21,NE,47,12.0,14.0,43,0.00,,,0.00,Wunderground v.1.15,2013-04-04 04:12:00,
2013-04-03 23:17:00,46.2,24.9,30.21,NE,45,10.0,17.0,43,0.00,,,0.00,Wunderground v.1.15,2013-04-04 04:17:00,
2013-04-03 23:22:00,46.1,25.4,30.20,NNE,28,14.0,17.0,44,0.00,,,0.00,Wunderground v.1.15,2013-04-04 04:22:00,
2013-04-03 23:27:00,46.0,25.3,30.20,NNE,28,10.0,17.0,44,0.00,,,0.00,Wunderground v.1.15,2013-04-04 04:27:00,
2013-04-03 23:32:00,46.0,25.3,30.21,NE,38,11.0,18.0,44,0.00,,,0.00,Wunderground v.1.15,2013-04-04 04:32:00,
2013-04-03 23:37:00,45.9,24.6,30.20,NE,38,12.0,18.0,43,0.00,,,0.00,Wunderground v.1.15,2013-04-04 04:37:00,
2013-04-03 23:42:00,45.8,25.1,30.20,NE,45,11.0,18.0,44,0.00,,,0.00,Wunderground v.1.15,2013-04-04 04:42:00,
2013-04-03 23:47:00,45.7,25.5,30.20,NE,38,12.0,18.0,45,0.00,,,0.00,Wunderground v.1.15,2013-04-04 04:47:00,
2013-04-03 23:52:00,45.6,24.9,30.20,NE,42,13.0,16.0,44,0.00,,,0.00,Wunderground v.1.15,2013-04-04 04:52:00,
2013-04-03 23:57:00,45.6,24.9,30.19,NE,34,13.0,17.0,44,0.00,,,0.00,Wunderground v.1.15,2013-04-04 04:57:00,